Mojave, CA

2:07 AM PDT on October 16, 2019 (GMT -0700)
Mojave

Weather History for KMHV - May, 2019

Change the Weather History Date:

Tuesday, May 28, 2019

  Actual Average Record
Temperature  
Mean Temperature 62 °F -  
Max Temperature 75 °F 81 °F 102 °F (2003)
Min Temperature 50 °F 57 °F 43 °F (1977)
Degree Days  
Heating Degree Days 2    
Growing Degree Days 12 (Base 50)    
Moisture  
Dew Point 41 °F    
Average Humidity 50    
Maximum Humidity 62    
Minimum Humidity 29    
Precipitation  
Precipitation 0.00 in - - ()
Sea Level Pressure  
Sea Level Pressure 29.91 in    
Wind  
Wind Speed 15 mph (NW)    
Max Wind Speed 32 mph    
Max Gust Speed 41 mph    
Visibility 10 miles    
Events      
Averages and records for this station are not official NWS values.
T = Trace of Precipitation, MM = Missing Value Source: NWS Daily Summary

Daily Weather History Graph

Daily Weather History Graph

Search for Another Location

Airport or City:

Astronomy

May. 28, 2019 Rise Set
Actual Time 5:41 AM PDT 7:58 PM PDT
Civil Twilight 5:12 AM PDT 8:27 PM PDT
Nautical Twilight 4:36 AM PDT 9:03 PM PDT
Astronomical Twilight 3:58 AM PDT 9:42 PM PDT
Moon 2:38 AM PDT (5/28) 2:29 PM PDT (5/28)
Length of Visible Light 15h 15m
Length of Day
14h 17m
Waning Crescent, 30% of the Moon is Illuminated
May 28
Waning Crescent
Jun 3
New
Jun 9
First Quarter
Jun 17
Full
Jun 25
Last Quarter

Hourly Weather History & Observations

Time (PDT) Temp. Dew Point Humidity Pressure Visibility Wind Dir Wind Speed Gust Speed Precip Events Conditions
12:00 AM 51.8 °F 37.4 °F 58% 29.94 in 10.0 mi NW 19.6 mph 32.2 mph N/A   Clear
12:20 AM 51.8 °F 37.4 °F 58% 29.94 in 10.0 mi NW 17.3 mph 25.3 mph N/A   Clear
1:00 AM 51.8 °F 37.4 °F 58% 29.95 in 10.0 mi NW 13.8 mph 24.2 mph N/A   Clear
1:20 AM 51.8 °F 37.4 °F 58% 29.94 in 10.0 mi NW 12.7 mph - N/A   Clear
1:40 AM 51.8 °F 37.4 °F 58% 29.93 in 10.0 mi WNW 16.1 mph 23.0 mph N/A   Clear
2:00 AM 51.8 °F 37.4 °F 58% 29.94 in 10.0 mi WNW 18.4 mph 28.8 mph N/A   Clear
2:20 AM 51.8 °F 37.4 °F 58% 29.93 in 10.0 mi WNW 21.9 mph - N/A   Partly Cloudy
2:40 AM 51.8 °F 37.4 °F 58% 29.94 in 10.0 mi NW 11.5 mph 19.6 mph N/A   Clear
3:00 AM 51.8 °F 37.4 °F 58% 29.93 in 10.0 mi NW 13.8 mph - N/A   Clear
3:40 AM 50.0 °F 37.4 °F 62% 29.93 in 10.0 mi NW 13.8 mph - N/A   Clear
4:00 AM 50.0 °F 37.4 °F 62% 29.93 in 10.0 mi NW 12.7 mph 18.4 mph N/A   Clear
4:20 AM 50.0 °F 37.4 °F 62% 29.93 in 10.0 mi NW 9.2 mph - N/A   Clear
4:40 AM 50.0 °F 37.4 °F 62% 29.92 in 10.0 mi NW 10.4 mph - N/A   Clear
5:00 AM 51.8 °F 37.4 °F 58% 29.92 in 10.0 mi NW 10.4 mph - N/A   Partly Cloudy
5:20 AM 50.0 °F 37.4 °F 62% 29.93 in 10.0 mi NW 5.8 mph 16.1 mph N/A   Clear
6:20 AM 50.0 °F 37.4 °F 62% 29.93 in 10.0 mi North 9.2 mph - N/A   Clear
6:40 AM 51.8 °F 37.4 °F 58% 29.93 in 10.0 mi Variable 4.6 mph - N/A   Clear
7:00 AM 51.8 °F 37.4 °F 58% 29.93 in 10.0 mi NNE 5.8 mph - N/A   Clear
7:20 AM 51.8 °F 39.2 °F 62% 29.93 in 10.0 mi East 3.5 mph - N/A   Clear
7:40 AM 53.6 °F 39.2 °F 58% 29.94 in 10.0 mi Calm Calm - N/A   Clear
8:20 AM 57.2 °F 39.2 °F 51% 29.94 in 10.0 mi East 5.8 mph - N/A   Clear
8:40 AM 57.2 °F 39.2 °F 51% 29.94 in 10.0 mi East 5.8 mph - N/A   Clear
9:00 AM 59.0 °F 39.2 °F 48% 29.94 in 10.0 mi NE 4.6 mph - N/A   Clear
9:20 AM 59.0 °F 39.2 °F 48% 29.94 in 10.0 mi Calm Calm - N/A   Clear
9:40 AM 60.8 °F 39.2 °F 45% 29.94 in 10.0 mi East 8.1 mph - N/A   Clear
10:20 AM 60.8 °F 37.4 °F 42% 29.95 in 10.0 mi East 4.6 mph - N/A   Clear
10:40 AM 62.6 °F 39.2 °F 42% 29.95 in 10.0 mi Variable 4.6 mph - N/A   Clear
11:00 AM 64.4 °F 41.0 °F 42% 29.94 in 10.0 mi WSW 9.2 mph - N/A   Clear
11:20 AM 64.4 °F 41.0 °F 42% 29.94 in 10.0 mi Variable 5.8 mph - N/A   Clear
12:00 PM 68.0 °F 41.0 °F 37% 29.93 in 10.0 mi West 4.6 mph - N/A   Clear
12:20 PM 69.8 °F 41.0 °F 35% 29.93 in 10.0 mi Calm Calm - N/A   Clear
12:40 PM 69.8 °F 41.0 °F 35% 29.92 in 10.0 mi Variable 5.8 mph - N/A   Clear
1:00 PM 71.6 °F 41.0 °F 33% 29.92 in 10.0 mi Variable 6.9 mph - N/A   Clear
1:20 PM 71.6 °F 39.2 °F 31% 29.91 in 10.0 mi Calm Calm - N/A   Clear
2:00 PM 73.4 °F 42.8 °F 33% 29.90 in 10.0 mi WSW 11.5 mph 17.3 mph N/A   Clear
2:20 PM 73.4 °F 44.6 °F 36% 29.90 in 10.0 mi West 16.1 mph - N/A   Clear
2:40 PM 75.2 °F 44.6 °F 34% 29.89 in 10.0 mi West 10.4 mph 20.7 mph N/A   Clear
3:00 PM 73.4 °F 42.8 °F 33% 29.88 in 10.0 mi West 15.0 mph - N/A   Clear
3:20 PM 75.2 °F 41.0 °F 29% 29.88 in 10.0 mi West 9.2 mph - N/A   Clear
4:00 PM 75.2 °F 42.8 °F 31% 29.87 in 10.0 mi West 16.1 mph - N/A   Clear
4:20 PM 73.4 °F 46.4 °F 38% 29.87 in 10.0 mi WNW 24.2 mph - N/A   Clear
4:40 PM 71.6 °F 46.4 °F 41% 29.87 in 10.0 mi WNW 25.3 mph 33.4 mph N/A   Clear
5:00 PM 69.8 °F 46.4 °F 43% 29.86 in 10.0 mi WNW 27.6 mph 34.5 mph N/A   Clear
5:20 PM 69.8 °F 46.4 °F 43% 29.86 in 10.0 mi WNW 29.9 mph - N/A   Clear
5:40 PM 68.0 °F 46.4 °F 46% 29.86 in 10.0 mi WNW 29.9 mph 39.1 mph N/A   Clear
6:00 PM 68.0 °F 46.4 °F 46% 29.86 in 10.0 mi NW 25.3 mph 33.4 mph N/A   Clear
6:40 PM 66.2 °F 46.4 °F 49% 29.86 in 10.0 mi NW 28.8 mph 38.0 mph N/A   Clear
7:00 PM 64.4 °F 44.6 °F 49% 29.86 in 10.0 mi WNW 32.2 mph 38.0 mph N/A   Clear
7:20 PM 62.6 °F 44.6 °F 52% 29.87 in 10.0 mi NW 24.2 mph 39.1 mph N/A   Clear
7:40 PM 60.8 °F 44.6 °F 55% 29.87 in 10.0 mi NW 29.9 mph 40.3 mph N/A   Clear
8:00 PM 60.8 °F 44.6 °F 55% 29.87 in 10.0 mi WNW 29.9 mph 41.4 mph N/A   Clear
8:40 PM 60.8 °F 44.6 °F 55% 29.88 in 10.0 mi WNW 28.8 mph 34.5 mph N/A   Clear
9:00 PM 59.0 °F 44.6 °F 59% 29.88 in 10.0 mi WNW 31.1 mph 40.3 mph N/A   Clear
9:20 PM 59.0 °F 44.6 °F 59% 29.88 in 10.0 mi WNW 26.5 mph 35.7 mph N/A   Clear
9:40 PM 59.0 °F 44.6 °F 59% 29.89 in 10.0 mi WNW 21.9 mph 33.4 mph N/A   Clear
10:00 PM 59.0 °F 44.6 °F 59% 29.89 in 10.0 mi WNW 26.5 mph 38.0 mph N/A   Clear
10:20 PM 59.0 °F 44.6 °F 59% 29.89 in 10.0 mi WNW 25.3 mph - N/A   Clear
11:00 PM 59.0 °F 42.8 °F 55% 29.89 in 10.0 mi WNW 20.7 mph 28.8 mph N/A   Clear
11:20 PM 60.8 °F 42.8 °F 52% 29.89 in 10.0 mi WNW 21.9 mph 27.6 mph N/A   Clear
11:40 PM 59.0 °F 42.8 °F 55% 29.89 in 10.0 mi WNW 23.0 mph 29.9 mph N/A   Clear